User: anonymous   Login
Location: Carnières
(50.1682°N, 3.3474°E)
Time: 10:06:39
(UTC+00:00)
Language:

Cosmos 2333 Rocket - Orbit

View from above orbital plane
View from above orbital plane
View from above satellite
View from above satellite

Ground track
Ground track

The orbit data is extracted from the following two-line orbital elements,

1 24298U 96051B   24200.88074636 -.00000121  00000-0 -38770-4 0  9991
2 24298  70.8012   1.8202 0017922 296.8951  63.0337 14.12465188437353
Epoch (UTC): 18 July 2024 21:08:16
Eccentricity: 0.0017922
inclination: 70.8012°
perigee height: 838 km
apogee height: 864 km
right ascension of ascending node: 1.8202°
argument of perigee: 296.8951°
revolutions per day: 14.12465188
mean anomaly at epoch: 63.0337°
orbit number at epoch: 43735

The dashed part of the orbit path shows where the satellite is in the earth's shadow,  

DLR